,,Stat6,,Stat2,,Stat8,,Stat9,,Stat10,,Wind1,,Wind1,
time,status,PA1M_AVG,status,PR1M_SUM,status,RH1M_AVG,status,SR1M_AVG,status,TA1M_AVG,status,W1dAve1m,status,W1sAve1m,
2008-12-06, 00:00:00,VALID,919.006,VALID,0,VALID,100,VALID,-0.0509425,VALID,18.3596,VALID,143,VALID,0,
2008-12-06, 00:01:00,VALID,918.98,VALID,0,VALID,100,VALID,-0.101885,VALID,18.3596,VALID,143,VALID,0,
2008-12-06, 00:02:00,VALID,918.964,VALID,0,VALID,100,VALID,-0.101885,VALID,18.3471,VALID,143,VALID,0,
2008-12-06, 00:03:00,VALID,918.956,VALID,0,VALID,100,VALID,-0.101885,VALID,18.3204,VALID,143,VALID,0,
2008-12-06, 00:04:00,VALID,918.954,VALID,0,VALID,100,VALID,-0.135847,VALID,18.3206,VALID,143,VALID,0,
2008-12-06, 00:05:00,VALID,918.945,VALID,0,VALID,100,VALID,-0.101885,VALID,18.3274,VALID,143,VALID,0,
2008-12-06, 00:06:00,VALID,918.94,VALID,0,VALID,100,VALID,-0.101885,VALID,18.3174,VALID,143,VALID,0,
2008-12-06, 00:07:00,VALID,918.944,VALID,0,VALID,100,VALID,-0.0509425,VALID,18.2945,VALID,140,VALID,0,
2008-12-06, 00:08:00,VALID,918.928,VALID,0,VALID,100,VALID,0,VALID,18.284,VALID,99,VALID,0,
2008-12-06, 00:09:00,VALID,918.927,VALID,0,VALID,100,VALID,-0.0169808,VALID,18.2609,VALID,86,VALID,0,
2008-12-06, 00:10:00,VALID,918.913,VALID,0,VALID,100,VALID,-0.0169808,VALID,18.2544,VALID,86,VALID,0,
2008-12-06, 00:11:00,VALID,918.921,VALID,0,VALID,100,VALID,0,VALID,18.2512,VALID,86,VALID,0,
2008-12-06, 00:12:00,VALID,918.912,VALID,0,VALID,100,VALID,0,VALID,18.2477,VALID,86,VALID,0,
2008-12-06, 00:13:00,VALID,918.897,VALID,0,VALID,100,VALID,-0.0169808,VALID,18.2444,VALID,86,VALID,0,
2008-12-06, 00:14:00,VALID,918.883,VALID,0,VALID,100,VALID,0.0169808,VALID,18.2382,VALID,86,VALID,0,
2008-12-06, 00:15:00,VALID,918.868,VALID,0,VALID,100,VALID,0.0339617,VALID,18.2118,VALID,86,VALID,0,
2008-12-06, 00:16:00,VALID,918.86,VALID,0,VALID,100,VALID,0.0509425,VALID,18.1995,VALID,86,VALID,0,
2008-12-06, 00:17:00,VALID,918.858,VALID,0,VALID,100,VALID,0.0169808,VALID,18.1798,VALID,86,VALID,0,
2008-12-06, 00:18:00,VALID,918.854,VALID,0,VALID,100,VALID,0.0339617,VALID,18.1731,VALID,86,VALID,0,
2008-12-06, 00:19:00,VALID,918.841,VALID,0,VALID,100,VALID,0,VALID,18.1569,VALID,85,VALID,0,
2008-12-06, 00:20:00,VALID,918.83,VALID,0,VALID,100,VALID,0.0169808,VALID,18.1606,VALID,85,VALID,0,
2008-12-06, 00:21:00,VALID,918.805,VALID,0,VALID,100,VALID,0.0169808,VALID,18.1606,VALID,85,VALID,0,
2008-12-06, 00:22:00,VALID,918.796,VALID,0,VALID,100,VALID,-0.0849042,VALID,18.158,VALID,77,VALID,0,
2008-12-06, 00:23:00,VALID,918.768,VALID,0,VALID,100,VALID,-0.0849042,VALID,18.1585,VALID,69,VALID,0,
2008-12-06, 00:24:00,VALID,918.76,VALID,0,VALID,100,VALID,-0.0849042,VALID,18.1548,VALID,63,VALID,0,
2008-12-06, 00:25:00,VALID,918.759,VALID,0,VALID,100,VALID,-0.0849042,VALID,18.1682,VALID,53,VALID,0,
2008-12-06, 00:26:00,VALID,918.738,VALID,0,VALID,100,VALID,-0.101885,VALID,18.1583,VALID,59,VALID,0,
2008-12-06, 00:27:00,VALID,918.734,VALID,0,VALID,100,VALID,-0.0849042,VALID,18.1555,VALID,59,VALID,0,
2008-12-06, 00:28:00,VALID,918.725,VALID,0,VALID,100,VALID,-0.0849042,VALID,18.1316,VALID,59,VALID,0,
2008-12-06, 00:29:00,VALID,918.719,VALID,0,VALID,100,VALID,-0.0849042,VALID,18.1423,VALID,59,VALID,0,
2008-12-06, 00:30:00,VALID,918.714,VALID,0,VALID,100,VALID,-0.0679233,VALID,18.1423,VALID,59,VALID,0,
2008-12-06, 00:31:00,VALID,918.69,VALID,0,VALID,100,VALID,-0.101885,VALID,18.1453,VALID,46,VALID,0,
2008-12-06, 00:32:00,VALID,918.683,VALID,0,VALID,100,VALID,-0.101885,VALID,18.1747,VALID,40,VALID,0,
2008-12-06, 00:33:00,VALID,918.664,VALID,0,VALID,100,VALID,-0.0849042,VALID,18.1779,VALID,40,VALID,0,
2008-12-06, 00:34:00,VALID,918.649,VALID,0,VALID,100,VALID,-0.0849042,VALID,18.1777,VALID,40,VALID,0,
2008-12-06, 00:35:00,VALID,918.639,VALID,0,VALID,100,VALID,-0.118866,VALID,18.1747,VALID,40,VALID,0,
2008-12-06, 00:36:00,VALID,918.634,VALID,0,VALID,100,VALID,-0.101885,VALID,18.1647,VALID,40,VALID,0,
2008-12-06, 00:37:00,VALID,918.626,VALID,0,VALID,100,VALID,-0.0509425,VALID,18.1708,VALID,36,VALID,0,
2008-12-06, 00:38:00,VALID,918.618,VALID,0,VALID,100,VALID,0.0169808,VALID,18.1863,VALID,9,VALID,0,
2008-12-06, 00:39:00,VALID,918.615,VALID,0,VALID,100,VALID,-0.0169808,VALID,18.1863,VALID,297,VALID,0,
2008-12-06, 00:40:00,VALID,918.593,VALID,0,VALID,100,VALID,0,VALID,18.1993,VALID,297,VALID,0,
2008-12-06, 00:41:00,VALID,918.586,VALID,0,VALID,100,VALID,0.0169808,VALID,18.2018,VALID,327,VALID,0,
2008-12-06, 00:42:00,VALID,918.579,VALID,0,VALID,100,VALID,0.0339617,VALID,18.2185,VALID,49,VALID,0,
2008-12-06, 00:43:00,VALID,918.575,VALID,0,VALID,100,VALID,0.0169808,VALID,18.222,VALID,42,VALID,0,
2008-12-06, 00:44:00,VALID,918.576,VALID,0,VALID,100,VALID,0.0169808,VALID,18.2083,VALID,42,VALID,0,
2008-12-06, 00:45:00,VALID,918.591,VALID,0,VALID,100,VALID,0.0509425,VALID,18.2153,VALID,42,VALID,0,
2008-12-06, 00:46:00,VALID,918.573,VALID,0,VALID,100,VALID,0.0169808,VALID,18.2085,VALID,42,VALID,0,
2008-12-06, 00:47:00,VALID,918.567,VALID,0,VALID,100,VALID,0.0169808,VALID,18.2122,VALID,42,VALID,0,
2008-12-06, 00:48:00,VALID,918.562,VALID,0,VALID,100,VALID,0.0169808,VALID,18.2155,VALID,42,VALID,0,
2008-12-06, 00:49:00,VALID,918.555,VALID,0,VALID,100,VALID,0.0509425,VALID,18.2085,VALID,42,VALID,0,
2008-12-06, 00:50:00,VALID,918.554,VALID,0,VALID,100,VALID,0,VALID,18.219,VALID,43,VALID,0,
2008-12-06, 00:51:00,VALID,918.543,VALID,0,VALID,100,VALID,0.0169808,VALID,18.225,VALID,44,VALID,0,
2008-12-06, 00:52:00,VALID,918.535,VALID,0,VALID,100,VALID,0,VALID,18.2254,VALID,44,VALID,0,
2008-12-06, 00:53:00,VALID,918.528,VALID,0,VALID,100,VALID,-0.0339617,VALID,18.2227,VALID,44,VALID,0,
2008-12-06, 00:54:00,VALID,918.504,VALID,0,VALID,100,VALID,-0.0509425,VALID,18.2363,VALID,60,VALID,0,
2008-12-06, 00:55:00,VALID,918.519,VALID,0,VALID,100,VALID,-0.0679233,VALID,18.2428,VALID,69,VALID,0,
2008-12-06, 00:56:00,VALID,918.521,VALID,0,VALID,100,VALID,-0.0509425,VALID,18.2586,VALID,49,VALID,0,
2008-12-06, 00:57:00,VALID,918.488,VALID,0,VALID,100,VALID,-0.0509425,VALID,18.2748,VALID,19,VALID,0,
2008-12-06, 00:58:00,VALID,918.477,VALID,0,VALID,100,VALID,-0.0509425,VALID,18.2979,VALID,19,VALID,0,
2008-12-06, 00:59:00,VALID,918.452,VALID,0,VALID,100,VALID,-0.0339617,VALID,18.2977,VALID,19,VALID,0,
2008-12-06, 01:00:00,VALID,918.443,VALID,0,VALID,100,VALID,-0.0339617,VALID,18.3077,VALID,19,VALID,0,
2008-12-06, 01:01:00,VALID,918.432,VALID,0,VALID,100,VALID,-0.0339617,VALID,18.2942,VALID,49,VALID,0,
2008-12-06, 01:02:00,VALID,918.421,VALID,0,VALID,100,VALID,-0.0679233,VALID,18.304,VALID,128,VALID,0,
2008-12-06, 01:03:00,VALID,918.431,VALID,0,VALID,100,VALID,-0.0679233,VALID,18.3139,VALID,140,VALID,0,
2008-12-06, 01:04:00,VALID,918.424,VALID,0,VALID,100,VALID,-0.0339617,VALID,18.3139,VALID,140,VALID,0,
2008-12-06, 01:05:00,VALID,918.419,VALID,0,VALID,100,VALID,-0.0339617,VALID,18.3234,VALID,140,VALID,0,
2008-12-06, 01:06:00,VALID,918.398,VALID,0,VALID,100,VALID,-0.0169808,VALID,18.3394,VALID,104,VALID,0,
2008-12-06, 01:07:00,VALID,918.413,VALID,0,VALID,100,VALID,-0.0509425,VALID,18.3433,VALID,84,VALID,0,
2008-12-06, 01:08:00,VALID,918.426,VALID,0,VALID,100,VALID,-0.0339617,VALID,18.3496,VALID,84,VALID,0,
2008-12-06, 01:09:00,VALID,918.437,VALID,0,VALID,100,VALID,-0.0509425,VALID,18.3427,VALID,71,VALID,0,
2008-12-06, 01:10:00,VALID,918.441,VALID,0,VALID,100,VALID,-0.0679233,VALID,18.3656,INVALID,360,VALID,0,
2008-12-06, 01:11:00,VALID,918.425,VALID,0,VALID,100,VALID,-0.0339617,VALID,18.3656,INVALID,360,VALID,0,
2008-12-06, 01:12:00,VALID,918.426,VALID,0,VALID,100,VALID,-0.0339617,VALID,18.3755,INVALID,360,VALID,0,
2008-12-06, 01:13:00,VALID,918.427,VALID,0,VALID,100,VALID,0,VALID,18.3688,INVALID,360,VALID,0,
2008-12-06, 01:14:00,VALID,918.418,VALID,0,VALID,100,VALID,-0.0509425,VALID,18.379,INVALID,360,VALID,0,
2008-12-06, 01:15:00,VALID,918.415,VALID,0.2,VALID,100,VALID,-0.0849042,VALID,18.3753,INVALID,360,VALID,0,
2008-12-06, 01:16:00,VALID,918.395,VALID,0,VALID,100,VALID,-0.0339617,VALID,18.3818,INVALID,360,VALID,0,
2008-12-06, 01:17:00,VALID,918.392,VALID,0,VALID,100,VALID,-0.0509425,VALID,18.3881,INVALID,360,VALID,0,
2008-12-06, 01:18:00,VALID,918.361,VALID,0,VALID,100,VALID,-0.0849042,VALID,18.3952,INVALID,360,VALID,0,
2008-12-06, 01:19:00,VALID,918.345,VALID,0,VALID,100,VALID,-0.0849042,VALID,18.395,INVALID,360,VALID,0,
2008-12-06, 01:20:00,VALID,918.315,VALID,0,VALID,100,VALID,-0.0509425,VALID,18.408,INVALID,360,VALID,0,
2008-12-06, 01:21:00,VALID,918.275,VALID,0,VALID,100,VALID,-0.0509425,VALID,18.4439,VALID,34,VALID,0,
2008-12-06, 01:22:00,VALID,918.255,VALID,0,VALID,100,VALID,-0.0849042,VALID,18.4566,VALID,42,VALID,0,
2008-12-06, 01:23:00,VALID,918.259,VALID,0,VALID,100,VALID,-0.0339617,VALID,18.4532,VALID,31,VALID,0,
2008-12-06, 01:24:00,VALID,918.247,VALID,0,VALID,100,VALID,-0.0169808,VALID,18.4629,VALID,31,VALID,0,
2008-12-06, 01:25:00,VALID,918.236,VALID,0,VALID,100,VALID,0,VALID,18.4601,VALID,28,VALID,0,
2008-12-06, 01:26:00,VALID,918.216,VALID,0,VALID,100,VALID,-0.0169808,VALID,18.4439,VALID,28,VALID,0,
2008-12-06, 01:27:00,VALID,918.206,VALID,0,VALID,100,VALID,-0.0509425,VALID,18.4302,VALID,13,VALID,0,
2008-12-06, 01:28:00,VALID,918.183,VALID,0,VALID,100,VALID,-0.0679233,VALID,18.4372,VALID,11,VALID,0,
2008-12-06, 01:29:00,VALID,918.176,VALID,0,VALID,100,VALID,-0.0509425,VALID,18.4536,VALID,8,VALID,0,
2008-12-06, 01:30:00,VALID,918.182,VALID,0,VALID,100,VALID,-0.0339617,VALID,18.4434,VALID,4,VALID,0,
2008-12-06, 01:31:00,VALID,918.161,VALID,0,VALID,100,VALID,-0.0339617,VALID,18.4437,VALID,335,VALID,0,
2008-12-06, 01:32:00,VALID,918.16,VALID,0,VALID,100,VALID,-0.0849042,VALID,18.4342,VALID,334,VALID,0,
2008-12-06, 01:33:00,VALID,918.148,VALID,0,VALID,100,VALID,-0.0509425,VALID,18.4409,VALID,334,VALID,0,
2008-12-06, 01:34:00,VALID,918.133,VALID,0,VALID,100,VALID,-0.0679233,VALID,18.4369,VALID,334,VALID,0,
2008-12-06, 01:35:00,VALID,918.127,VALID,0,VALID,100,VALID,-0.0509425,VALID,18.4471,VALID,351,VALID,0,
2008-12-06, 01:36:00,VALID,918.128,VALID,0,VALID,100,VALID,-0.0679233,VALID,18.4497,VALID,45,VALID,0,
2008-12-06, 01:37:00,VALID,918.118,VALID,0,VALID,100,VALID,-0.0339617,VALID,18.4657,VALID,35,VALID,0.0567336,
2008-12-06, 01:38:00,VALID,918.122,VALID,0,VALID,100,VALID,-0.0679233,VALID,18.4925,VALID,35,VALID,0,
2008-12-06, 01:39:00,VALID,918.103,VALID,0,VALID,100,VALID,-0.0339617,VALID,18.5053,VALID,35,VALID,0,
2008-12-06, 01:40:00,VALID,918.084,VALID,0,VALID,100,VALID,-0.0339617,VALID,18.4951,VALID,35,VALID,0,
2008-12-06, 01:41:00,VALID,918.091,VALID,0,VALID,100,VALID,-0.0169808,VALID,18.4856,VALID,35,VALID,0,
2008-12-06, 01:42:00,VALID,918.086,VALID,0,VALID,100,VALID,-0.0849042,VALID,18.5018,VALID,23,VALID,0.0814986,
2008-12-06, 01:43:00,VALID,918.072,VALID,0,VALID,100,VALID,-0.0339617,VALID,18.5185,VALID,7,VALID,0.00962936,
2008-12-06, 01:44:00,VALID,918.078,VALID,0,VALID,100,VALID,-0.0169808,VALID,18.528,VALID,351,VALID,0,
2008-12-06, 01:45:00,VALID,918.069,VALID,0,VALID,100,VALID,-0.0169808,VALID,18.5375,VALID,326,VALID,0,
2008-12-06, 01:46:00,VALID,918.064,VALID,0,VALID,100,VALID,-0.0339617,VALID,18.5433,VALID,326,VALID,0,
2008-12-06, 01:47:00,VALID,918.053,VALID,0,VALID,100,VALID,-0.0169808,VALID,18.5759,VALID,5,VALID,0,
2008-12-06, 01:48:00,VALID,918.036,VALID,0,VALID,100,VALID,-0.0169808,VALID,18.5857,VALID,346,VALID,0,
2008-12-06, 01:49:00,VALID,918.025,VALID,0,VALID,100,VALID,-0.0339617,VALID,18.5824,VALID,343,VALID,0,
2008-12-06, 01:50:00,VALID,918.008,VALID,0,VALID,100,VALID,-0.0169808,VALID,18.5891,VALID,324,VALID,0,
2008-12-06, 01:51:00,VALID,918.004,VALID,0,VALID,100,VALID,-0.0509425,VALID,18.5933,VALID,317,VALID,0,
2008-12-06, 01:52:00,VALID,918.001,VALID,0,VALID,100,VALID,-0.0509425,VALID,18.5664,VALID,317,VALID,0,
2008-12-06, 01:53:00,VALID,917.982,VALID,0,VALID,100,VALID,-0.0169808,VALID,18.5502,VALID,317,VALID,0,
2008-12-06, 01:54:00,VALID,917.953,VALID,0,VALID,100,VALID,-0.0509425,VALID,18.521,VALID,317,VALID,0,
2008-12-06, 01:55:00,VALID,917.963,VALID,0,VALID,100,VALID,-0.0169808,VALID,18.5145,VALID,319,VALID,0,
2008-12-06, 01:56:00,VALID,917.953,VALID,0,VALID,100,VALID,-0.0339617,VALID,18.521,VALID,345,VALID,0,
2008-12-06, 01:57:00,VALID,917.942,VALID,0,VALID,100,VALID,-0.0169808,VALID,18.5108,VALID,7,VALID,0,
2008-12-06, 01:58:00,VALID,917.952,VALID,0,VALID,100,VALID,-0.0849042,VALID,18.5148,VALID,352,VALID,0,
2008-12-06, 01:59:00,VALID,917.945,VALID,0,VALID,100,VALID,-0.0509425,VALID,18.4949,VALID,306,VALID,0,
2008-12-06, 02:00:00,VALID,917.934,VALID,0,VALID,100,VALID,-0.0339617,VALID,18.4951,VALID,321,VALID,0,
2008-12-06, 02:01:00,VALID,917.932,VALID,0,VALID,100,VALID,-0.0339617,VALID,18.4687,VALID,321,VALID,0,
2008-12-06, 02:02:00,VALID,917.934,VALID,0,VALID,100,VALID,-0.0509425,VALID,18.4761,VALID,323,VALID,0,
2008-12-06, 02:03:00,VALID,917.934,VALID,0,VALID,100,VALID,-0.0679233,VALID,18.4592,VALID,321,VALID,0,
2008-12-06, 02:04:00,VALID,917.936,VALID,0,VALID,100,VALID,-0.0849042,VALID,18.4599,VALID,321,VALID,0,
2008-12-06, 02:05:00,VALID,917.915,VALID,0,VALID,100,VALID,-0.0509425,VALID,18.4464,VALID,321,VALID,0,
2008-12-06, 02:06:00,VALID,917.921,VALID,0,VALID,100,VALID,-0.0679233,VALID,18.4404,VALID,321,VALID,0,
2008-12-06, 02:07:00,VALID,917.905,VALID,0,VALID,100,VALID,-0.0339617,VALID,18.4462,VALID,342,VALID,0,
2008-12-06, 02:08:00,VALID,917.895,VALID,0,VALID,100,VALID,-0.0509425,VALID,18.443,VALID,348,VALID,0.0100446,
2008-12-06, 02:09:00,VALID,917.885,VALID,0,VALID,100,VALID,-0.0509425,VALID,18.4629,VALID,347,VALID,0,
2008-12-06, 02:10:00,VALID,917.878,VALID,0,VALID,100,VALID,-0.0169808,VALID,18.4759,VALID,347,VALID,0,
2008-12-06, 02:11:00,VALID,917.893,VALID,0,VALID,100,VALID,-0.0169808,VALID,18.4592,VALID,347,VALID,0,
2008-12-06, 02:12:00,VALID,917.878,VALID,0,VALID,100,VALID,-0.0509425,VALID,18.4467,VALID,312,VALID,0,
2008-12-06, 02:13:00,VALID,917.883,VALID,0,VALID,100,VALID,-0.0679233,VALID,18.4298,VALID,347,VALID,0,
2008-12-06, 02:14:00,VALID,917.883,VALID,0,VALID,100,VALID,-0.0339617,VALID,18.4237,VALID,337,VALID,0,
2008-12-06, 02:15:00,VALID,917.884,VALID,0,VALID,100,VALID,-0.0509425,VALID,18.4471,VALID,14,VALID,0.0605015,
2008-12-06, 02:16:00,VALID,917.872,VALID,0,VALID,100,VALID,-0.0339617,VALID,18.4694,VALID,9,VALID,0.00117188,
2008-12-06, 02:17:00,VALID,917.87,VALID,0,VALID,100,VALID,-0.0679233,VALID,18.4854,VALID,5,VALID,0,
2008-12-06, 02:18:00,VALID,917.844,VALID,0,VALID,100,VALID,-0.0339617,VALID,18.4849,VALID,7,VALID,0.265253,
2008-12-06, 02:19:00,VALID,917.833,VALID,0,VALID,100,VALID,-0.101885,VALID,18.5041,VALID,343,VALID,0,
2008-12-06, 02:20:00,VALID,917.823,VALID,0,VALID,100,VALID,-0.0679233,VALID,18.5247,VALID,346,VALID,0,
2008-12-06, 02:21:00,VALID,917.8,VALID,0,VALID,100,VALID,-0.0509425,VALID,18.5143,VALID,19,VALID,0.00571646,
2008-12-06, 02:22:00,VALID,917.782,VALID,0,VALID,100,VALID,-0.0679233,VALID,18.5345,VALID,12,VALID,0.364757,
2008-12-06, 02:23:00,VALID,917.764,VALID,0,VALID,100,VALID,-0.0339617,VALID,18.5243,VALID,24,VALID,0.437322,
2008-12-06, 02:24:00,VALID,917.766,VALID,0,VALID,100,VALID,-0.0339617,VALID,18.5532,VALID,14,VALID,0.243823,
2008-12-06, 02:25:00,VALID,917.754,VALID,0,VALID,100,VALID,-0.0339617,VALID,18.5532,VALID,10,VALID,0.177689,
2008-12-06, 02:26:00,VALID,917.749,VALID,0,VALID,100,VALID,-0.0169808,VALID,18.5697,VALID,28,VALID,0.136364,
2008-12-06, 02:27:00,VALID,917.729,VALID,0,VALID,100,VALID,-0.0339617,VALID,18.5692,VALID,24,VALID,0.231827,
2008-12-06, 02:28:00,VALID,917.728,VALID,0,VALID,100,VALID,-0.0339617,VALID,18.5859,VALID,18,VALID,0.148268,
2008-12-06, 02:29:00,VALID,917.702,VALID,0,VALID,100,VALID,-0.0339617,VALID,18.5822,VALID,336,VALID,0.00199855,
2008-12-06, 02:30:00,VALID,917.681,VALID,0,VALID,100,VALID,-0.0339617,VALID,18.5697,VALID,359,VALID,0.00169837,
2008-12-06, 02:31:00,VALID,917.673,VALID,0,VALID,100,VALID,-0.0509425,VALID,18.5794,VALID,357,VALID,0.000545058,
2008-12-06, 02:32:00,VALID,917.661,VALID,0,VALID,100,VALID,-0.0509425,VALID,18.5595,VALID,7,VALID,0.0109012,
2008-12-06, 02:33:00,VALID,917.647,VALID,0,VALID,100,VALID,-0.0169808,VALID,18.5634,VALID,344,VALID,0,
2008-12-06, 02:34:00,VALID,917.622,VALID,0,VALID,100,VALID,-0.0509425,VALID,18.5333,VALID,336,VALID,0,
2008-12-06, 02:35:00,VALID,917.625,VALID,0,VALID,100,VALID,-0.0339617,VALID,18.5372,VALID,353,VALID,0,
2008-12-06, 02:36:00,VALID,917.607,VALID,0,VALID,100,VALID,-0.0339617,VALID,18.5467,VALID,354,VALID,0,
2008-12-06, 02:37:00,VALID,917.607,VALID,0,VALID,100,VALID,-0.0509425,VALID,18.5405,VALID,350,VALID,0,
2008-12-06, 02:38:00,VALID,917.596,VALID,0,VALID,100,VALID,-0.0339617,VALID,18.5335,VALID,7,VALID,0,
2008-12-06, 02:39:00,VALID,917.587,VALID,0,VALID,100,VALID,0,VALID,18.5268,VALID,21,VALID,0,
2008-12-06, 02:40:00,VALID,917.568,VALID,0,VALID,100,VALID,-0.0679233,VALID,18.541,VALID,21,VALID,0,
2008-12-06, 02:41:00,VALID,917.558,VALID,0.2,VALID,100,VALID,-0.0509425,VALID,18.5138,VALID,4,VALID,0,
2008-12-06, 02:42:00,VALID,917.557,VALID,0,VALID,100,VALID,-0.0339617,VALID,18.5013,VALID,348,VALID,0,
2008-12-06, 02:43:00,VALID,917.54,VALID,0,VALID,100,VALID,-0.0509425,VALID,18.4849,VALID,7,VALID,0,
2008-12-06, 02:44:00,VALID,917.524,VALID,0,VALID,100,VALID,-0.0169808,VALID,18.4981,VALID,18,VALID,0.0703125,
2008-12-06, 02:45:00,VALID,917.515,VALID,0,VALID,100,VALID,-0.0339617,VALID,18.4944,VALID,14,VALID,0.151456,
2008-12-06, 02:46:00,VALID,917.508,VALID,0,VALID,100,VALID,-0.0339617,VALID,18.4946,VALID,8,VALID,0.0630716,
2008-12-06, 02:47:00,VALID,917.49,VALID,0,VALID,100,VALID,-0.0339617,VALID,18.4914,VALID,8,VALID,0.718378,
2008-12-06, 02:48:00,VALID,917.49,VALID,0,VALID,100,VALID,0.0169808,VALID,18.5076,VALID,5,VALID,0.046689,
2008-12-06, 02:49:00,VALID,917.476,VALID,0,VALID,100,VALID,-0.0509425,VALID,18.5305,VALID,19,VALID,0.0296148,
2008-12-06, 02:50:00,VALID,917.472,VALID,0,VALID,100,VALID,-0.0169808,VALID,18.5305,VALID,23,VALID,0,
2008-12-06, 02:51:00,VALID,917.46,VALID,0,VALID,100,VALID,-0.0509425,VALID,18.5407,VALID,2,VALID,0.097561,
2008-12-06, 02:52:00,VALID,917.455,VALID,0,VALID,100,VALID,-0.0509425,VALID,18.547,VALID,6,VALID,0.0477834,
2008-12-06, 02:53:00,VALID,917.437,VALID,0,VALID,100,VALID,-0.0679233,VALID,18.5542,VALID,17,VALID,0.462139,
2008-12-06, 02:54:00,VALID,917.434,VALID,0,VALID,100,VALID,-0.0849042,VALID,18.5641,VALID,10,VALID,0.152644,
2008-12-06, 02:55:00,VALID,917.434,VALID,0,VALID,100,VALID,-0.0679233,VALID,18.5641,VALID,345,VALID,0.101181,
2008-12-06, 02:56:00,VALID,917.44,VALID,0,VALID,100,VALID,-0.101885,VALID,18.5472,VALID,8,VALID,0.20149,
2008-12-06, 02:57:00,VALID,917.432,VALID,0,VALID,100,VALID,-0.101885,VALID,18.5509,VALID,5,VALID,0.0351563,
2008-12-06, 02:58:00,VALID,917.42,VALID,0,VALID,100,VALID,-0.0849042,VALID,18.5574,VALID,338,VALID,0.0025436,
2008-12-06, 02:59:00,VALID,917.413,VALID,0,VALID,100,VALID,-0.101885,VALID,18.5669,VALID,28,VALID,0.0893895,
2008-12-06, 03:00:00,VALID,917.395,VALID,0,VALID,100,VALID,-0.101885,VALID,18.5604,VALID,27,VALID,0.355373,
2008-12-06, 03:01:00,VALID,917.366,VALID,0,VALID,100,VALID,-0.101885,VALID,18.5671,VALID,360,VALID,0.238467,
2008-12-06, 03:02:00,VALID,917.358,VALID,0,VALID,100,VALID,-0.118866,VALID,18.5674,VALID,16,VALID,0.581321,
2008-12-06, 03:03:00,VALID,917.348,VALID,0,VALID,100,VALID,-0.101885,VALID,18.5706,VALID,13,VALID,0.177782,
2008-12-06, 03:04:00,VALID,917.338,VALID,0,VALID,100,VALID,-0.118866,VALID,18.5709,VALID,8,VALID,0.396621,
2008-12-06, 03:05:00,VALID,917.326,VALID,0,VALID,100,VALID,-0.135847,VALID,18.5671,VALID,28,VALID,0.703125,
2008-12-06, 03:06:00,VALID,917.321,VALID,0,VALID,100,VALID,-0.101885,VALID,18.5836,VALID,11,VALID,0.111793,
2008-12-06, 03:07:00,VALID,917.317,VALID,0,VALID,100,VALID,-0.101885,VALID,18.5803,VALID,14,VALID,0.484012,
2008-12-06, 03:08:00,VALID,917.328,VALID,0,VALID,100,VALID,-0.118866,VALID,18.5701,VALID,16,VALID,0,
2008-12-06, 03:09:00,VALID,917.318,VALID,0,VALID,100,VALID,-0.0849042,VALID,18.5769,VALID,16,VALID,0.0984003,
2008-12-06, 03:10:00,VALID,917.313,VALID,0,VALID,100,VALID,-0.101885,VALID,18.5739,VALID,19,VALID,0.714571,
2008-12-06, 03:11:00,VALID,917.305,VALID,0,VALID,100,VALID,-0.101885,VALID,18.5704,VALID,14,VALID,0.792492,
2008-12-06, 03:12:00,VALID,917.298,VALID,0,VALID,100,VALID,-0.101885,VALID,18.5639,VALID,14,VALID,0.719512,
2008-12-06, 03:13:00,VALID,917.303,VALID,0,VALID,100,VALID,-0.118866,VALID,18.5671,VALID,3,VALID,0.417014,
2008-12-06, 03:14:00,VALID,917.292,VALID,0,VALID,100,VALID,-0.101885,VALID,18.5574,VALID,12,VALID,0.187872,
2008-12-06, 03:15:00,VALID,917.282,VALID,0,VALID,100,VALID,-0.0849042,VALID,18.5542,VALID,8,VALID,0.064596,
2008-12-06, 03:16:00,VALID,917.273,VALID,0,VALID,100,VALID,-0.101885,VALID,18.5477,VALID,353,VALID,0.0293818,
2008-12-06, 03:17:00,VALID,917.254,VALID,0,VALID,100,VALID,-0.118866,VALID,18.5509,VALID,355,VALID,0.155678,
2008-12-06, 03:18:00,VALID,917.246,VALID,0,VALID,100,VALID,-0.101885,VALID,18.5479,VALID,2,VALID,0.257813,
2008-12-06, 03:19:00,VALID,917.238,VALID,0,VALID,100,VALID,-0.118866,VALID,18.5512,VALID,358,VALID,0.0980283,
2008-12-06, 03:20:00,VALID,917.219,VALID,0,VALID,100,VALID,-0.0849042,VALID,18.5444,VALID,25,VALID,0.0537574,
2008-12-06, 03:21:00,VALID,917.199,VALID,0,VALID,100,VALID,-0.118866,VALID,18.5345,VALID,14,VALID,0.00111607,
2008-12-06, 03:22:00,VALID,917.182,VALID,0,VALID,100,VALID,-0.0679233,VALID,18.5372,VALID,2,VALID,0,
2008-12-06, 03:23:00,VALID,917.152,VALID,0,VALID,100,VALID,0,VALID,18.537,VALID,1,VALID,0.00109012,
2008-12-06, 03:24:00,VALID,917.152,VALID,0,VALID,100,VALID,0,VALID,18.5203,VALID,15,VALID,0.13941,
2008-12-06, 03:25:00,VALID,917.141,VALID,0,VALID,100,VALID,0,VALID,18.5106,VALID,8,VALID,0.27381,
2008-12-06, 03:26:00,VALID,917.132,VALID,0,VALID,100,VALID,-0.0169808,VALID,18.5009,VALID,8,VALID,0.884909,
2008-12-06, 03:27:00,VALID,917.137,VALID,0,VALID,100,VALID,0,VALID,18.4979,VALID,11,VALID,1.34432,
2008-12-06, 03:28:00,VALID,917.129,VALID,0,VALID,100,VALID,0,VALID,18.4944,VALID,10,VALID,0.88891,
2008-12-06, 03:29:00,VALID,917.147,VALID,0,VALID,100,VALID,-0.0169808,VALID,18.4944,VALID,4,VALID,0,
2008-12-06, 03:30:00,VALID,917.13,VALID,0,VALID,100,VALID,0,VALID,18.4911,VALID,16,VALID,0.110102,
2008-12-06, 03:31:00,VALID,917.131,VALID,0,VALID,100,VALID,0.0169808,VALID,18.4879,VALID,359,VALID,0.0783155,
2008-12-06, 03:32:00,VALID,917.124,VALID,0,VALID,100,VALID,-0.0169808,VALID,18.4916,VALID,9,VALID,0.370536,
2008-12-06, 03:33:00,VALID,917.126,VALID,0,VALID,100,VALID,0,VALID,18.4847,VALID,356,VALID,0.210193,
2008-12-06, 03:34:00,VALID,917.107,VALID,0,VALID,100,VALID,-0.0169808,VALID,18.4911,VALID,6,VALID,0.0012718,
2008-12-06, 03:35:00,VALID,917.105,VALID,0,VALID,100,VALID,0,VALID,18.4812,VALID,24,VALID,0,
2008-12-06, 03:36:00,VALID,917.119,VALID,0,VALID,100,VALID,0,VALID,18.4911,VALID,22,VALID,0,
2008-12-06, 03:37:00,VALID,917.116,VALID,0,VALID,100,VALID,0,VALID,18.4779,VALID,12,VALID,0,
2008-12-06, 03:38:00,VALID,917.122,VALID,0,VALID,100,VALID,0,VALID,18.4814,VALID,5,VALID,0.0277158,
2008-12-06, 03:39:00,VALID,917.14,VALID,0,VALID,100,VALID,0.0169808,VALID,18.4747,VALID,355,VALID,0,
2008-12-06, 03:40:00,VALID,917.151,VALID,0,VALID,100,VALID,-0.0169808,VALID,18.471,VALID,12,VALID,0.0926339,
2008-12-06, 03:41:00,VALID,917.163,VALID,0,VALID,100,VALID,0,VALID,18.4677,VALID,17,VALID,0.13681,
2008-12-06, 03:42:00,VALID,917.169,VALID,0,VALID,100,VALID,0,VALID,18.4682,VALID,17,VALID,0,
2008-12-06, 03:43:00,VALID,917.203,VALID,0,VALID,100,VALID,0,VALID,18.4717,VALID,11,VALID,0,
2008-12-06, 03:44:00,VALID,917.214,VALID,0,VALID,100,VALID,0.0339617,VALID,18.4717,VALID,10,VALID,0,
2008-12-06, 03:45:00,VALID,917.226,VALID,0,VALID,100,VALID,0.0169808,VALID,18.461,VALID,6,VALID,0,
2008-12-06, 03:46:00,VALID,917.231,VALID,0,VALID,100,VALID,0.0339617,VALID,18.4684,VALID,16,VALID,0.0745908,
2008-12-06, 03:47:00,VALID,917.241,VALID,0,VALID,100,VALID,0.0169808,VALID,18.4782,VALID,24,VALID,0,